STARLINK-33822, 63658

Orbit data source: Space-Track

STARLINK-33822, 63658 is a payload satellite owned by SpaceX/Seattle (US) in LEO that was launched on Fri, 25 Apr 2025 UTC via an FALCON 9 launch vehicle from the Air Force Eastern Test Range (AFETR). Payload-class satellites include a variety of spacecraft equipped with specific instruments for various scientific and technological missions. These include communications satellites like Starlink; space stations such as the ISS; scientific satellites like the Hubble; Earth observation satellites from companies like Planet Labs, Umbra, and HawkEye 360; GPS; miniature CubeSats for education and research; and military/defense satellites.

Loading next visibility...
Identifier
63658, 2025-083AA
Orbit
LEO
Country
Flag of USUS
Related business
Manufacturer
SpaceX/Seattle
Mission
Operational Commercial Communications
Bus & Motor
STARLINK V2MO, Unknown motor
Mass
575 kg wet, ~530 kg dry
Launch date (UTC)
2025-04-25 (1 year ago)
Launch vehicle
FALCON 9
Launch site
Air Force Eastern Test Range (AFETR)
Object type
Payload
Rocket body
Debris
Shape & HBR
Box + 2 Pan, 17.7 m
Radar Cross Section
36.964 m², Large (>1 m²)

Expand to show TLE details & history
Last TLE update: 20 hours ago

TLE from 20 hours ago
0 STARLINK-33822
1 63658U 25083AA  26171.01052743  .00015561  00000-0  57349-3 0  9994
2 63658  43.0018 147.5088 0001614 273.3530  86.7137 15.27598322 65742
Epoch: 2026-06-20T00:15Z
TLE epoch observation values (Epoch: 2026-06-20T00:15:09.569Z)
Latitude
-0.00004°
Longitude
-124.5124°
Altitude
482.707 km
Speed
7.626 km/s
True Right ascension
09h 50m 02s
True Declination
0° 00' 00"
Sunlit
Object was in daylight at epoch
Visualization orbit readout
Latitude
Unknown
Longitude
Unknown
Altitude
Unknown
Speed
Unknown
Apparent Right ascension
Unknown
Apparent Declination
Unknown
Sunlit
N/A
Visualization observer readout
Local Sidereal Time
07:17:50
Azimuth
Unknown
Elevation
Unknown
Doppler factor
Unknown
Orbital elements
Apogee altitude
486.047 km
Perigee altitude
483.831 km
Semi-major axis
6,863.076 km
Eccentricity
0.00016
Inclination
43.0018°
RAAN
147.5088°
Arg. of periapsis
273.353°
True anomaly
86.73216°
Mean anomaly
86.7137°
Eccentric anomaly
86.72293°
Mean motion
3.81738 °/min
Orbital period
94.31 mins
BSTAR
0.00057349
Loading maneuver chart data...
Computing Atmospheric mass density...
Loading historical data...
Loading historical data...
Loading historical data...
Loading historical data...
Loading historical data...
Loading historical data...
Loading historical data...

Documentation

Showing up to 5 results
|